| time (UTC) | temp F | wind direction | speed MPH | gust MPH | rain 1hr in | rain 24hr in | rain mn in | humidity % | barometer mb |
| 20260507133033 | 57 | 132 | 2.0 | 7.0 | 0.00 | 0.00 | 0.00 | 58 | 1016.5 |
| 20260507131539 | 58 | 133 | 2.0 | 7.0 | 0.00 | 0.00 | 0.00 | 60 | 1016.5 |
| 20260507130033 | 58 | 123 | 3.0 | 8.0 | 0.00 | 0.00 | 0.00 | 59 | 1016.5 |
| 20260507124535 | 60 | 137 | 4.0 | 10.0 | 0.00 | 0.00 | 0.00 | 56 | 1016.5 |
| 20260507123033 | 59 | 113 | 4.0 | 9.0 | 0.00 | 0.00 | 0.00 | 59 | 1016.4 |
| 20260507121531 | 61 | 0 | 2.0 | 13.0 | 0.00 | 0.00 | 0.00 | 59 | 1016.4 |
| 20260507120032 | 59 | 149 | 2.0 | 11.0 | 0.00 | 0.00 | 0.00 | 62 | 1016.4 |
| 20260507114532 | 56 | 129 | 4.0 | 10.0 | 0.00 | 0.00 | 0.00 | 62 | 1016.8 |
| 20260507113036 | 59 | 118 | 5.0 | 10.0 | 0.00 | 0.00 | 0.00 | 59 | 1016.9 |
| 20260507111538 | 58 | 95 | 5.0 | 10.0 | 0.00 | 0.00 | 0.00 | 64 | 1016.9 |
| 20260507110033 | 58 | 151 | 5.0 | 10.0 | 0.00 | 0.00 | 0.00 | 65 | 1017.0 |
| 20260507104535 | 58 | 139 | 2.0 | 10.0 | 0.00 | 0.00 | 0.00 | 67 | 1017.0 |
| 20260507103030 | 56 | 114 | 3.0 | 11.0 | 0.00 | 0.00 | 0.00 | 66 | 1017.0 |
| 20260507101552 | 55 | 206 | 2.0 | 8.0 | 0.00 | 0.00 | 0.00 | 70 | 1017.1 |
| 20260507100035 | 55 | 106 | 2.0 | 9.0 | 0.00 | 0.00 | 0.00 | 67 | 1017.2 |
| 20260507094532 | 53 | 239 | 2.0 | 6.0 | 0.00 | 0.00 | 0.00 | 76 | 1017.3 |
| 20260507093034 | 52 | 133 | 0.0 | 4.0 | 0.00 | 0.00 | 0.00 | 74 | 1017.2 |
| 20260507091550 | 53 | 0 | 0.0 | 10.0 | 0.00 | 0.00 | 0.00 | 75 | 1017.2 |
| 20260507090033 | 53 | 131 | 3.0 | 10.0 | 0.00 | 0.00 | 0.00 | 76 | 1017.1 |
| 20260507084530 | 53 | 7 | 1.0 | 6.0 | 0.00 | 0.00 | 0.00 | 74 | 1017.1 |
| 20260507083032 | 53 | 167 | 3.0 | 10.0 | 0.00 | 0.00 | 0.00 | 74 | 1017.0 |
| 20260507081548 | 52 | 95 | 0.0 | 10.0 | 0.00 | 0.00 | 0.00 | 77 | 1017.0 |
| 20260507080033 | 52 | 124 | 2.0 | 9.0 | 0.00 | 0.00 | 0.00 | 76 | 1016.8 |
| 20260507074537 | 51 | 176 | 2.0 | 8.0 | 0.00 | 0.00 | 0.00 | 78 | 1017.0 |
| 20260507073036 | 50 | 120 | 3.0 | 9.0 | 0.00 | 0.00 | 0.00 | 81 | 1016.9 |
| 20260507071530 | 49 | 118 | 4.0 | 10.0 | 0.00 | 0.00 | 0.00 | 83 | 1016.8 |
| 20260507070036 | 47 | 116 | 4.0 | 7.0 | 0.00 | 0.00 | 0.00 | 86 | 1016.7 |
| 20260507064533 | 46 | 133 | 2.0 | 5.0 | 0.00 | 0.00 | 0.00 | 91 | 1016.7 |
| 20260507063031 | 44 | 133 | 3.0 | 7.0 | 0.00 | 0.00 | 0.00 | 95 | 1016.6 |
| 20260507061534 | 42 | 130 | 4.0 | 7.0 | 0.00 | 0.00 | 0.00 | 98 | 1016.4 |
| 20260507060034 | 38 | 127 | 1.0 | 2.0 | 0.00 | 0.00 | 0.00 | 97 | 1016.5 |
| 20260507054533 | 36 | 0 | 0.0 | 0.0 | 0.00 | 0.00 | 0.00 | 96 | 1016.3 |
| 20260507053036 | 35 | 0 | 0.0 | 0.0 | 0.00 | 0.00 | 0.00 | 95 | 1016.4 |
| 20260507051532 | 34 | 0 | 0.0 | 0.0 | 0.00 | 0.00 | 0.00 | 94 | 1016.4 |
| 20260507050033 | 34 | 0 | 0.0 | 0.0 | 0.00 | 0.00 | 0.00 | 94 | 1016.4 |
| 20260507044543 | 35 | 0 | 0.0 | 0.0 | 0.00 | 0.00 | 0.00 | 94 | 1016.3 |
| 20260507043037 | 35 | 0 | 0.0 | 0.0 | 0.00 | 0.00 | 0.00 | 94 | 1016.2 |
| 20260507041531 | 35 | 0 | 0.0 | 0.0 | 0.00 | 0.00 | 0.00 | 94 | 1016.3 |
| 20260507040034 | 36 | 0 | 0.0 | 0.0 | 0.00 | 0.00 | 0.00 | 94 | 1016.4 |
| 20260507034533 | 36 | 0 | 0.0 | 0.0 | 0.00 | 0.00 | 0.00 | 94 | 1016.5 |
| 20260507033032 | 37 | 0 | 0.0 | 0.0 | 0.00 | 0.00 | 0.00 | 93 | 1016.5 |
| 20260507031532 | 37 | 0 | 0.0 | 0.0 | 0.00 | 0.00 | 0.00 | 93 | 1016.5 |
| 20260507030030 | 38 | 0 | 0.0 | 0.0 | 0.00 | 0.00 | 0.00 | 93 | 1016.5 |
| 20260507024535 | 39 | 0 | 0.0 | 0.0 | 0.00 | 0.00 | 0.00 | 94 | 1016.5 |
| 20260507023034 | 39 | 0 | 0.0 | 0.0 | 0.00 | 0.00 | 0.00 | 94 | 1016.6 |
| 20260507021534 | 39 | 0 | 0.0 | 0.0 | 0.00 | 0.00 | 0.00 | 94 | 1016.5 |
| 20260507020034 | 39 | 0 | 0.0 | 0.0 | 0.00 | 0.00 | 0.00 | 94 | 1016.4 |
| 20260507014537 | 39 | 0 | 0.0 | 0.0 | 0.00 | 0.00 | 0.00 | 94 | 1016.4 |
| 20260507013035 | 39 | 0 | 0.0 | 1.0 | 0.00 | 0.00 | 0.00 | 94 | 1016.4 |
| 20260507011534 | 39 | 0 | 0.0 | 0.0 | 0.00 | 0.00 | 0.00 | 94 | 1016.5 |
| 20260507010032 | 38 | 0 | 0.0 | 1.0 | 0.00 | 0.00 | 0.00 | 94 | 1016.4 |
| 20260507004532 | 38 | 0 | 0.0 | 0.0 | 0.00 | 0.00 | 0.00 | 93 | 1016.5 |
| 20260507003031 | 38 | 0 | 0.0 | 1.0 | 0.00 | 0.00 | 0.00 | 93 | 1016.7 |
| 20260507001531 | 38 | 0 | 0.0 | 0.0 | 0.00 | 0.00 | 0.00 | 92 | 1016.6 |
| 20260507000032 | 38 | 0 | 0.0 | 0.0 | 0.00 | 0.00 | 0.00 | 91 | 1016.6 |
| 20260506234534 | 39 | 0 | 0.0 | 0.0 | 0.00 | 0.00 | 0.00 | 90 | 1016.5 |
| 20260506233032 | 39 | 0 | 0.0 | 0.0 | 0.00 | 0.00 | 0.00 | 89 | 1016.7 |
| 20260506231535 | 40 | 0 | 0.0 | 0.0 | 0.00 | 0.00 | 0.00 | 89 | 1016.7 |
| 20260506230030 | 41 | 0 | 0.0 | 0.0 | 0.00 | 0.00 | 0.00 | 88 | 1016.7 |
| 20260506224534 | 42 | 0 | 0.0 | 4.0 | 0.00 | 0.00 | 0.00 | 88 | 1016.6 |
| 20260506223034 | 42 | 134 | 3.0 | 7.0 | 0.00 | 0.00 | 0.00 | 88 | 1016.4 |
| 20260506221534 | 42 | 141 | 3.0 | 5.0 | 0.00 | 0.00 | 0.00 | 89 | 1016.5 |
| 20260506220036 | 43 | 0 | 0.0 | 3.0 | 0.00 | 0.00 | 0.00 | 89 | 1016.6 |
| 20260506214534 | 43 | 141 | 1.0 | 2.0 | 0.00 | 0.00 | 0.00 | 90 | 1016.6 |
| 20260506213032 | 43 | 137 | 1.0 | 3.0 | 0.00 | 0.00 | 0.00 | 89 | 1016.6 |
| 20260506211532 | 43 | 148 | 1.0 | 3.0 | 0.00 | 0.00 | 0.00 | 89 | 1016.6 |
| 20260506210032 | 43 | 141 | 1.0 | 3.0 | 0.00 | 0.00 | 0.00 | 88 | 1016.5 |
| 20260506204534 | 43 | 140 | 1.0 | 4.0 | 0.00 | 0.00 | 0.00 | 88 | 1016.2 |
| 20260506203034 | 43 | 0 | 1.0 | 7.0 | 0.00 | 0.00 | 0.00 | 88 | 1016.0 |
| 20260506201542 | 44 | 103 | 1.0 | 10.0 | 0.00 | 0.00 | 0.00 | 87 | 1015.9 |
| 20260506200033 | 44 | 147 | 1.0 | 5.0 | 0.00 | 0.00 | 0.00 | 87 | 1015.9 |
| 20260506194540 | 44 | 159 | 1.0 | 7.0 | 0.00 | 0.00 | 0.00 | 86 | 1016.0 |
| 20260506193037 | 44 | 111 | 1.0 | 6.0 | 0.00 | 0.00 | 0.00 | 85 | 1016.0 |
| 20260506191536 | 45 | 146 | 1.0 | 7.0 | 0.00 | 0.00 | 0.00 | 84 | 1015.9 |
| 20260506190032 | 45 | 149 | 1.0 | 5.0 | 0.00 | 0.00 | 0.00 | 84 | 1015.9 |
| 20260506184540 | 46 | 0 | 1.0 | 7.0 | 0.00 | 0.00 | 0.00 | 84 | 1015.7 |
| 20260506183030 | 46 | 136 | 3.0 | 8.0 | 0.00 | 0.00 | 0.00 | 83 | 1015.8 |
| 20260506181532 | 46 | 171 | 2.0 | 8.0 | 0.00 | 0.00 | 0.00 | 83 | 1015.7 |
| 20260506180034 | 46 | 133 | 2.0 | 6.0 | 0.00 | 0.00 | 0.00 | 83 | 1015.7 |
| 20260506174534 | 46 | 112 | 3.0 | 9.0 | 0.00 | 0.00 | 0.00 | 84 | 1015.6 |
| 20260506173040 | 46 | 158 | 1.0 | 7.0 | 0.00 | 0.00 | 0.00 | 85 | 1015.7 |
| 20260506171544 | 46 | 193 | 2.0 | 7.0 | 0.00 | 0.00 | 0.00 | 86 | 1015.7 |
| 20260506170032 | 46 | 0 | 0.0 | 7.0 | 0.00 | 0.00 | 0.00 | 86 | 1015.7 |
| 20260506164535 | 46 | 50 | 2.0 | 8.0 | 0.00 | 0.00 | 0.00 | 86 | 1015.6 |
| 20260506163046 | 46 | 160 | 1.0 | 9.0 | 0.00 | 0.00 | 0.00 | 88 | 1015.6 |
| 20260506161538 | 46 | 263 | 1.0 | 8.0 | 0.00 | 0.00 | 0.00 | 88 | 1015.6 |
| 20260506160034 | 46 | 0 | 1.0 | 7.0 | 0.00 | 0.00 | 0.00 | 88 | 1015.5 |
| 20260506154537 | 46 | 172 | 1.0 | 8.0 | 0.00 | 0.00 | 0.00 | 89 | 1015.7 |
| 20260506153038 | 47 | 62 | 0.0 | 6.0 | 0.00 | 0.00 | 0.00 | 87 | 1015.7 |
| 20260506151534 | 47 | 174 | 1.0 | 6.0 | 0.00 | 0.00 | 0.00 | 85 | 1015.6 |
| 20260506150032 | 48 | 195 | 1.0 | 7.0 | 0.00 | 0.00 | 0.00 | 83 | 1015.5 |
| 20260506144537 | 48 | 357 | 1.0 | 6.0 | 0.00 | 0.00 | 0.00 | 83 | 1015.5 |
| 20260506143032 | 49 | 337 | 1.0 | 7.0 | 0.00 | 0.00 | 0.00 | 82 | 1015.5 |
| 20260506141531 | 49 | 303 | 2.0 | 10.0 | 0.00 | 0.00 | 0.00 | 80 | 1015.6 |
| 20260506140037 | 50 | 199 | 3.0 | 9.0 | 0.00 | 0.00 | 0.00 | 76 | 1015.5 |
| 20260506134530 | 51 | 206 | 2.0 | 8.0 | 0.00 | 0.00 | 0.00 | 75 | 1015.5 |